Regional Weather Roundup
Issued by NWS

Home | Current Version | Previous Version | Graphics & Text | Print | Product List | Glossary On
Versions: 1 2 3 4 5 6 7 8 9 10 11 12 13 14 15 16 17 18 19 20 21 22 23 24 25 26 27 28 29 30 31 32 33 34 35 36 37 38 39 40 41 42 43 44 45 46 47 48 49 50
000
ASUS43 KDMX 012107
RWRIA

WEATHER ROUNDUP FOR IOWA
NATIONAL WEATHER SERVICE DES MOINES IA
400 PM CDT TUE SEP 01 2015

NOTE: "FAIR" INDICATES FEW OR NO CLOUDS BELOW 12,000 FEET WITH NO
SIGNIFICANT WEATHER AND/OR OBSTRUCTIONS TO VISIBILITY.

* - THESE STATIONS ARE NOT NWS STATIONS...THUS NOT UNDER NWS
QUALITY CONTROL.  THEY ALSO DO NOT REPORT WEATHER SUCH
AS PRECIPITATION OR FOG.

IAZ001>003-012>014-020>022-031>034-043>046-012200-
   NORTHWEST IOWA

CITY           SKY/WX    TMP DP  RH WIND       PRES   REMARKS
CARROLL *      SUNNY     84  73  70 SW12      29.94S HX  91
CHEROKEE *     CLOUDY    84  72  65 S12G17    29.91S HX  89
DENISON *      SUNNY     82  73  74 S7G17     29.91F HX  88
LE MARS *      SUNNY     82  72  69 S13       29.89F HX  87
ORANGE CITY *  SUNNY     82  72  69 S10       29.90S HX  87
SHELDON *      SUNNY     82  72  69 S10       29.88F HX  87
SIOUX CITY     PTSUNNY   85  70  60 S10       29.88F HX  89
SPENCER        CLOUDY    84  70  62 S12       29.91F HX  88
STORM LAKE *   SUNNY     81  73  78 S8G14     29.94S HX  85
$$

IAZ055>058-069>071-079>083-090>094-012200-
   SOUTHWEST IOWA

CITY           SKY/WX    TMP DP  RH WIND       PRES   REMARKS
ATLANTIC *     SUNNY     86  73  66 S9G15     29.94F HX  93
AUDUBON *      SUNNY     84  73  70 S10       29.96F HX  91
CLARINDA *     SUNNY     90  72  55 S12G17    29.96F HX  96
COUNCIL BLFS * SUNNY     88  72  58 S13       29.93F HX  94
CRESTON *      SUNNY     86  73  66 S13       29.99S HX  93
LAMONI         MOSUNNY   89  70  53 S12       29.98F HX  94
RED OAK *      SUNNY     88  73  62 S10G17    29.94F HX  96
SHENANDOAH *   SUNNY     90  72  55 S14G20    29.94F HX  96
$$

IAZ047>049-059>061-072>074-084-012200-
   CENTRAL IOWA

CITY           SKY/WX    TMP DP  RH WIND       PRES   REMARKS
AMES           PTSUNNY   87  74  64 S10       29.95F HX  95
ANKENY *       SUNNY     88  73  62 S10       29.95S HX  96
CHARITON *     SUNNY     88  70  55 SW14G21   29.98S HX  92
DES MOINES     CLOUDY    89  71  55 S10       29.95F HX  95
GRINNELL*      SUNNY     88  72  58 S8        29.98S HX  94
KNOXVILLE *    SUNNY     88  73  62 S14       29.96S HX  96
MARSHALLTOWN   MOSUNNY   86  73  65 SW10      29.95F HX  93
PELLA *        MOSUNNY   90  77  66 S8        29.97F HX 102
PERRY *          N/A     88  73  62 S9        29.96S HX  96
$$

IAZ004>006-015-016-023>025-035-036-012200-
   NORTH CENTRAL IOWA

CITY           SKY/WX    TMP DP  RH WIND       PRES   REMARKS
ALGONA *       SUNNY     82  72  69 S13G20    29.93S HX  87
CLARION *      SUNNY     84  73  70 SW12      29.94F HAZE    HX  91
ESTHERVILLE    CLOUDY    82  72  71 S5        29.91F HX  87
FORT DODGE *   CLOUDY    84  72  65 S12       29.94F HX  89
MASON CITY     PTSUNNY   86  72  62 SW13      29.95F HX  92
FOREST CITY *  SUNNY     82  70  65 S9        29.93F HX  86
IOWA FALLS *     N/A     86  73  66 SW7       29.96F HX  93
$$

IAZ007>011-017>019-026>030-037>042-050>054-066-012200-
   NORTHEAST IOWA

CITY           SKY/WX    TMP DP  RH WIND       PRES   REMARKS
CEDAR RAPIDS   SUNNY     87  76  69 SW10      29.97S HX  97
CHARLES CITY * SUNNY     84  75  74 SW12      29.95S HX  92
CLINTON *      SUNNY     90  73  58 SW12G17   30.00F HX  98
DECORAH *      SUNNY     84  73  70 S9        29.94S HX  91
DUBUQUE        SUNNY     86  72  62 SW16      29.98F HX  92
MONTICELLO *   SUNNY     88  75  66 S9G17     29.96F HX  97
OELWEIN *      SUNNY     86  75  70 S9G18     29.96F HX  95
WATERLOO       MOSUNNY   88  73  61 S14       29.94S HX  95
$$

IAZ064-065-067-068-078-012200-
   EAST CENTRAL IOWA

CITY           SKY/WX    TMP DP  RH WIND       PRES   REMARKS
DAVENPORT      SUNNY     89  72  56 SW12      29.99F HX  96
IOWA CITY      SUNNY     89  72  56 S12       29.98S HX  96
MT. PLEASANT * SUNNY     93  63  36 SW9       29.99F HX  94
MUSCATINE *    SUNNY     93  68  43 SW14G21   29.98S HX  97
QUAD CITIES    MOSUNNY   90  71  53 SW9       29.98S HX  96
$$

IAZ062-063-075>077-085>089-095>099-012200-
   SOUTHEAST IOWA

CITY           SKY/WX    TMP DP  RH WIND       PRES   REMARKS
BURLINGTON     MOSUNNY   90  71  53 S8        30.00S HAZE    HX  96
FAIRFIELD *    SUNNY     91  68  46 SW9G16    29.99S HX  95
FORT MADISON * SUNNY     90  72  55 S7        30.01S HX  96
KEOKUK *       SUNNY     91  70  49 S12       29.99F HX  97
OSKALOOSA *      N/A     91  68  46 SW9G20    29.98S HX  95
CENTERVILLE *  SUNNY     88  72  58 S12       30.02S HX  94
OTTUMWA        SUNNY     88  71  57 S14       29.97S HX  94
WASHINGTON *     N/A    N/A N/A N/A MISG        N/A
$$

ABBREVIATIONS USED IN REMARKS
   TC - TEMPERATURES IN CELSIUS
  WCI - WIND CHILL INDEX
   HX - HEAT INDEX
  VSB - VISIBILITY
$$



USA.gov is the U.S. government's official web portal to all federal, state and local government web resources and services.